DW9572 Weather Reports


time (UTC)temp
F
wind
direction
speed
knots
gust
knots
rain 1hr
in
rain 24hr
in
rain mn
in
humidity
%
barometer
mb
20260901161511 68 172 1.7 5.2 0.00 0.00 0.00 52 1006.0
20260901160052 67 105 1.7 3.5 0.00 0.00 0.00 51 1005.7
20260901154538 66 96 1.7 2.6 0.00 0.00 0.00 55 1005.6
20260901153021 66 120 0.0 1.7 0.00 0.00 0.00 56 1005.7
20260901151519 65 127 0.0 0.9 0.00 0.00 0.00 57 1005.8
20260901150104 64 79 0.0 0.0 0.00 0.00 0.00 60 1005.8
20260901144557 63 79 0.0 1.7 0.00 0.00 0.00 61 1005.7
20260901143037 62 89 2.6 3.5 0.00 0.00 0.00 62 1005.3
20260901141538 64 148 0.9 1.7 0.00 0.00 0.00 57 1005.1
20260901140017 63 61 0.0 1.7 0.00 0.00 0.00 55 1005.2
20260901134528 63 284 2.6 5.2 0.00 0.00 0.00 54 1005.1
20260901133056 63 188 0.9 4.3 0.00 0.00 0.00 53 1005.1
20260901131553 62 177 2.6 7.0 0.00 0.00 0.00 56 1004.9
20260901130035 63 6 0.9 3.5 0.00 0.00 0.00 60 1005.1
20260901124540 63 44 0.0 3.5 0.00 0.00 0.00 57 1004.9
20260901123017 63 69 0.0 1.7 0.00 0.00 0.00 56 1005.0
20260901121516 63 16 0.0 4.3 0.00 0.00 0.00 56 1004.8
20260901120104 62 67 1.7 2.6 0.00 0.00 0.00 59 1005.0
20260901114600 65 151 2.6 6.1 0.00 0.00 0.00 52 1005.1
20260901113105 65 270 1.7 2.6 0.00 0.00 0.00 51 1004.8
20260901111541 65 264 0.0 4.3 0.00 0.00 0.00 50 1004.7
20260901110022 66 279 1.7 6.1 0.00 0.00 0.00 49 1004.7
20260901104522 66 305 3.5 6.1 0.00 0.00 0.00 50 1004.7
20260901103009 66 302 2.6 6.1 0.00 0.00 0.00 49 1004.9
20260901101508 66 294 0.9 2.6 0.00 0.00 0.00 48 1005.0
20260901100008 65 270 0.0 2.6 0.00 0.00 0.00 50 1004.9
20260901094507 64 336 0.0 1.7 0.00 0.00 0.00 51 1004.9
20260901093016 66 159 0.0 2.6 0.00 0.00 0.00 48 1005.0
20260901091506 67 286 2.6 4.3 0.00 0.00 0.00 46 1004.9
20260901090008 67 309 0.9 3.5 0.00 0.00 0.00 45 1005.0
20260901084517 69 278 4.3 7.0 0.00 0.00 0.00 43 1004.8
20260901083047 69 276 3.5 5.2 0.00 0.00 0.00 42 1004.9
20260901081551 70 273 3.5 8.7 0.00 0.00 0.00 42 1005.0
20260901080037 71 283 6.1 10.4 0.00 0.00 0.00 38 1005.2
20260901074528 72 264 6.1 9.6 0.00 0.00 0.00 35 1005.2
20260901073010 73 278 2.6 7.0 0.00 0.00 0.00 35 1005.1
20260901071510 72 281 4.3 8.7 0.00 0.00 0.00 35 1005.2
20260901070100 72 276 7.0 10.4 0.00 0.00 0.00 36 1005.2
20260901064550 72 294 5.2 7.8 0.00 0.00 0.00 36 1005.4
20260901063032 72 266 6.1 8.7 0.00 0.00 0.00 35 1005.4
20260901061531 74 186 1.7 5.2 0.00 0.00 0.00 33 1005.4
20260901060013 74 302 4.3 7.8 0.00 0.00 0.00 33 1005.5
20260901054515 74 291 4.3 7.8 0.00 0.00 0.00 33 1005.6
20260901053128 75 296 5.2 9.6 0.00 0.00 0.00 32 1005.6
20260901051556 77 338 6.1 13.0 0.00 0.00 0.00 29 1005.7
20260901050054 79 345 9.6 14.8 0.00 0.00 0.00 28 1005.6
20260901044554 79 335 13.0 16.5 0.00 0.00 0.00 28 1005.4
20260901043040 79 339 13.9 18.2 0.00 0.00 0.00 28 1005.6
20260901041519 78 347 13.9 20.9 0.00 0.00 0.00 29 1005.8
20260901040017 78 356 11.3 13.9 0.00 0.00 0.00 29 1005.6
20260901034606 78 340 12.2 16.5 0.00 0.00 0.00 29 1005.6
20260901033058 78 346 7.8 13.9 0.00 0.00 0.00 29 1005.8
20260901031547 77 336 9.6 12.2 0.00 0.00 0.00 29 1005.6
20260901030041 79 343 11.3 14.8 0.00 0.00 0.00 28 1005.7
20260901024525 79 345 10.4 13.0 0.00 0.00 0.00 28 1005.7
20260901023021 78 340 9.6 13.0 0.00 0.00 0.00 29 1005.6
20260901021502 80 350 8.7 11.3 0.00 0.00 0.00 27 1005.8
20260901020114 82 354 8.7 12.2 0.00 0.00 0.00 25 1005.9
20260901014544 84 356 8.7 12.2 0.00 0.00 0.00 24 1006.0
20260901013044 85 27 7.8 12.2 0.00 0.00 0.00 23 1006.1
20260901011533 85 18 5.2 11.3 0.00 0.00 0.00 23 1006.2
20260901010021 85 30 8.7 13.0 0.00 0.00 0.00 23 1006.4
20260901004501 86 43 9.6 13.0 0.00 0.00 0.00 23 1006.6
20260901003123 86 8 7.8 11.3 0.00 0.00 0.00 22 1006.7
20260901001555 86 21 7.8 12.2 0.00 0.00 0.00 23 1007.0
20260901000044 86 82 5.2 12.2 0.00 0.00 0.00 22 1007.3
20260831234517 85 8 6.1 12.2 0.00 0.00 0.00 23 1007.4
20260831233032 85 60 10.4 14.8 0.00 0.00 0.00 23 1007.7
20260831231602 85 69 6.1 12.2 0.00 0.00 0.00 23 1008.0
20260831230053 85 12 8.7 13.0 0.00 0.00 0.00 24 1008.2
20260831224534 84 55 6.1 13.0 0.00 0.00 0.00 24 1008.5
20260831223034 83 58 7.8 13.9 0.00 0.00 0.00 25 1008.6
20260831221512 83 33 7.0 14.8 0.00 0.00 0.00 25 1008.9
20260831220009 83 37 10.4 13.0 0.00 0.00 0.00 24 1009.2
20260831214550 83 92 9.6 13.0 0.00 0.00 0.00 24 1009.6
20260831213045 81 90 6.1 13.9 0.00 0.00 0.00 25 1009.9
20260831211526 82 29 6.1 14.8 0.00 0.00 0.00 26 1010.0
20260831210023 80 87 12.2 14.8 0.00 0.00 0.00 26 1010.2
20260831204505 80 21 7.0 11.3 0.00 0.00 0.00 27 1010.5
20260831203059 79 87 12.2 15.6 0.00 0.00 0.00 28 1010.8
20260831201547 79 96 11.3 17.4 0.00 0.00 0.00 28 1011.0
20260831200042 79 101 12.2 17.4 0.00 0.00 0.00 29 1011.3
20260831194532 78 104 6.1 12.2 0.00 0.00 0.00 30 1011.5
20260831193012 77 95 7.0 14.8 0.00 0.00 0.00 31 1011.7
20260831191553 77 1 7.0 13.9 0.00 0.00 0.00 31 1012.1
20260831190058 76 51 7.0 14.8 0.00 0.00 0.00 32 1012.4
20260831184542 76 90 6.1 14.8 0.00 0.00 0.00 33 1012.6
20260831183033 75 89 9.6 13.0 0.00 0.00 0.00 32 1012.9
20260831181515 74 52 9.6 13.9 0.00 0.00 0.00 33 1013.0
20260831180005 73 45 9.6 13.9 0.00 0.00 0.00 36 1013.2
20260831174602 73 86 9.6 14.8 0.00 0.00 0.00 37 1013.2
20260831173059 73 53 9.6 12.2 0.00 0.00 0.00 40 1013.4
20260831171545 71 39 7.8 13.0 0.00 0.00 0.00 41 1013.7
20260831170042 70 69 10.4 12.2 0.00 0.00 0.00 44 1013.8
20260831164539 68 32 7.0 9.6 0.00 0.00 0.00 46 1014.0
20260831163037 65 85 5.2 7.8 0.00 0.00 0.00 50 1014.1